• In Belarus
  • List of Countries
  • For 7 days
  • Water Temperature
  • Weather Map
  • Weather Widgets
  • user-avatar
    Login

    Hourly Weather Gava

    Today, 21 January, Tuesday

    Time Temperature Precipitation Wind Pressure Humidity
    00:00 +6°C° 0 mm 16 mps 764 mmHg 81%
    01:00 +6°C° 7.3 mm 15 mps 764 mmHg 83%
    02:00 +5°C° 7.3 mm 14 mps 763 mmHg 85%
    03:00 +5°C° 7.3 mm 13 mps 763 mmHg 87%
    04:00 +7°C° 3.3 mm 13 mps 763 mmHg 88%
    05:00 +8°C° 3.3 mm 14 mps 763 mmHg 88%
    06:00 +9°C° 3.3 mm 14 mps 763 mmHg 89%
    07:00 +9°C° 2.5 mm 14 mps 763 mmHg 89%
    08:00 +9°C° 2.5 mm 14 mps 763 mmHg 89%
    09:00 +10°C° 2.5 mm 14 mps 763 mmHg 89%
    10:00 +10°C° 1.8 mm 15 mps 762 mmHg 88%
    11:00 +10°C° 1.8 mm 15 mps 762 mmHg 87%
    12:00 +11°C° 1.8 mm 16 mps 762 mmHg 87%
    13:00 +11°C° 1.3 mm 16 mps 762 mmHg 86%
    14:00 +10°C° 1.3 mm 16 mps 761 mmHg 86%
    15:00 +10°C° 1.3 mm 16 mps 761 mmHg 85%
    16:00 +10°C° 1.7 mm 16 mps 761 mmHg 85%
    17:00 +10°C° 1.7 mm 16 mps 761 mmHg 85%
    18:00 +10°C° 1.7 mm 17 mps 761 mmHg 85%
    19:00 +10°C° 5 mm 16 mps 761 mmHg 87%
    20:00 +10°C° 5 mm 15 mps 761 mmHg 89%
    21:00 +10°C° 5 mm 14 mps 761 mmHg 91%
    22:00 +10°C° 5.7 mm 13 mps 761 mmHg 90%
    23:00 +11°C° 5.7 mm 11 mps 760 mmHg 89%

    Tomorrow, 22 January, Wednesday

    Time Temperature Precipitation Wind Pressure Humidity
    00:00 +12°C° 5.7 mm 9 mps 760 mmHg 89%
    01:00 +12°C° 1.3 mm 8 mps 760 mmHg 87%
    02:00 +13°C° 1.3 mm 6 mps 760 mmHg 86%
    03:00 +12°C° 1.3 mm 5 mps 760 mmHg 85%
    04:00 +12°C° 0.2 mm 5 mps 760 mmHg 86%
    05:00 +12°C° 0.2 mm 4 mps 760 mmHg 88%
    06:00 +11°C° 0.2 mm 4 mps 760 mmHg 90%
    07:00 +12°C° 0.3 mm 4 mps 761 mmHg 86%
    08:00 +12°C° 0.3 mm 5 mps 761 mmHg 82%
    09:00 +13°C° 0.3 mm 6 mps 761 mmHg 78%
    10:00 +13°C° 0.7 mm 6 mps 761 mmHg 79%
    11:00 +13°C° 0.7 mm 6 mps 760 mmHg 79%
    12:00 +12°C° 0.7 mm 7 mps 760 mmHg 80%
    13:00 +13°C° 1.2 mm 8 mps 759 mmHg 82%
    14:00 +13°C° 1.2 mm 9 mps 759 mmHg 84%
    15:00 +13°C° 1.2 mm 10 mps 758 mmHg 86%
    16:00 +13°C° 0.8 mm 10 mps 758 mmHg 87%
    17:00 +13°C° 0.8 mm 9 mps 758 mmHg 87%
    18:00 +13°C° 0.8 mm 9 mps 758 mmHg 87%
    19:00 +13°C° 1.1 mm 9 mps 758 mmHg 87%
    20:00 +13°C° 1.1 mm 9 mps 759 mmHg 87%
    21:00 +13°C° 1.1 mm 9 mps 759 mmHg 86%
    22:00 +12°C° 1.1 mm 8 mps 759 mmHg 87%
    23:00 +12°C° 1.1 mm 7 mps 759 mmHg 87%

    Day after tomorrow, 23 January, Thursday

    Time Temperature Precipitation Wind Pressure Humidity
    00:00 +13°C° 1.1 mm 6 mps 759 mmHg 88%
    01:00 +12°C° 0.7 mm 4 mps 758 mmHg 88%
    02:00 +12°C° 0.7 mm 3 mps 758 mmHg 88%
    03:00 +12°C° 0.7 mm 1 mps 758 mmHg 87%
    04:00 +12°C° 0.2 mm 1 mps 758 mmHg 88%
    05:00 +12°C° 0.2 mm 1 mps 758 mmHg 88%
    06:00 +12°C° 0.2 mm 1 mps 758 mmHg 88%
    07:00 +12°C° 0 mm 1 mps 759 mmHg 87%
    08:00 +12°C° 0 mm 1 mps 760 mmHg 86%
    09:00 +11°C° 0 mm 0 mps 760 mmHg 84%
    10:00 +12°C° 0 mm 0 mps 760 mmHg 78%
    11:00 +13°C° 0 mm 0 mps 761 mmHg 72%
    12:00 +14°C° 0 mm 0 mps 761 mmHg 67%
    13:00 +15°C° 0 mm 1 mps 761 mmHg 65%
    14:00 +15°C° 0 mm 1 mps 760 mmHg 63%
    15:00 +15°C° 0 mm 2 mps 760 mmHg 62%
    16:00 +15°C° 0 mm 1 mps 760 mmHg 65%
    17:00 +14°C° 0 mm 1 mps 760 mmHg 69%
    18:00 +13°C° 0 mm 1 mps 760 mmHg 73%
    19:00 +13°C° 0 mm 1 mps 761 mmHg 74%
    20:00 +13°C° 0 mm 1 mps 761 mmHg 75%
    21:00 +12°C° 0 mm 1 mps 761 mmHg 76%
    22:00 +12°C° 0 mm 1 mps 761 mmHg 76%
    23:00 +12°C° 0 mm 1 mps 761 mmHg 75%

    24 January, Friday

    Time Temperature Precipitation Wind Pressure Humidity
    00:00 +12°C° 0 mm 2 mps 761 mmHg 74%
    01:00 +10°C° 0 mm 2 mps 761 mmHg 74%
    02:00 +10°C° 0 mm 2 mps 760 mmHg 73%
    03:00 +10°C° 0 mm 2 mps 760 mmHg 72%
    04:00 +10°C° 0 mm 2 mps 760 mmHg 71%
    05:00 +9°C° 0 mm 2 mps 760 mmHg 69%
    06:00 +9°C° 0 mm 2 mps 759 mmHg 68%
    07:00 +10°C° 0 mm 2 mps 760 mmHg 65%
    08:00 +11°C° 0 mm 1 mps 760 mmHg 63%
    09:00 +12°C° 0 mm 1 mps 760 mmHg 60%
    10:00 +13°C° 0 mm 2 mps 760 mmHg 56%
    11:00 +15°C° 0 mm 2 mps 760 mmHg 52%
    12:00 +16°C° 0 mm 2 mps 760 mmHg 48%
    13:00 +16°C° 0 mm 2 mps 759 mmHg 49%
    14:00 +16°C° 0 mm 2 mps 759 mmHg 49%
    15:00 +16°C° 0 mm 2 mps 759 mmHg 49%
    16:00 +15°C° 0 mm 2 mps 759 mmHg 53%
    17:00 +14°C° 0 mm 2 mps 759 mmHg 58%
    18:00 +13°C° 0 mm 2 mps 759 mmHg 62%
    19:00 +13°C° 0 mm 1 mps 759 mmHg 63%
    20:00 +13°C° 0 mm 1 mps 760 mmHg 63%
    21:00 +12°C° 0 mm 1 mps 760 mmHg 64%
    22:00 +12°C° 0 mm 1 mps 760 mmHg 65%
    23:00 +12°C° 0 mm 1 mps 760 mmHg 65%

    25 January, Saturday

    Time Temperature Precipitation Wind Pressure Humidity
    00:00 +12°C° 0 mm 1 mps 760 mmHg 66%
    01:00 +10°C° 0 mm 2 mps 759 mmHg 66%
    02:00 +10°C° 0 mm 2 mps 759 mmHg 66%
    03:00 +10°C° 0 mm 2 mps 759 mmHg 66%
    04:00 +10°C° 0 mm 3 mps 759 mmHg 65%
    05:00 +10°C° 0 mm 3 mps 759 mmHg 64%
    06:00 +10°C° 0 mm 3 mps 759 mmHg 63%
    07:00 +11°C° 0 mm 3 mps 759 mmHg 62%
    08:00 +11°C° 0 mm 3 mps 759 mmHg 61%
    09:00 +11°C° 0 mm 3 mps 759 mmHg 60%
    10:00 +12°C° 0 mm 3 mps 759 mmHg 59%
    11:00 +13°C° 0 mm 3 mps 759 mmHg 58%
    12:00 +14°C° 0 mm 3 mps 759 mmHg 56%
    13:00 +15°C° 0.1 mm 2 mps 758 mmHg 57%
    14:00 +16°C° 0.1 mm 2 mps 758 mmHg 57%
    15:00 +16°C° 0.1 mm 1 mps 758 mmHg 58%
    16:00 +15°C° 0.1 mm 1 mps 758 mmHg 60%
    17:00 +15°C° 0.1 mm 2 mps 758 mmHg 63%
    18:00 +14°C° 0.1 mm 2 mps 759 mmHg 66%
    19:00 +14°C° 0 mm 2 mps 759 mmHg 66%
    20:00 +13°C° 0 mm 2 mps 759 mmHg 67%
    21:00 +13°C° 0 mm 1 mps 760 mmHg 67%
    22:00 +12°C° 0 mm 2 mps 760 mmHg 68%
    23:00 +12°C° 0 mm 2 mps 760 mmHg 69%

    26 January, Sunday

    Time Temperature Precipitation Wind Pressure Humidity
    00:00 +12°C° 0 mm 2 mps 760 mmHg 70%
    01:00 +12°C° 0 mm 2 mps 760 mmHg 71%
    02:00 +10°C° 0 mm 2 mps 760 mmHg 72%
    03:00 +10°C° 0 mm 2 mps 760 mmHg 74%
    04:00 +10°C° 0 mm 3 mps 760 mmHg 74%
    05:00 +10°C° 0 mm 3 mps 761 mmHg 74%
    06:00 +9°C° 0 mm 3 mps 761 mmHg 74%
    07:00 +10°C° 0 mm 3 mps 761 mmHg 72%
    08:00 +10°C° 0 mm 3 mps 762 mmHg 70%
    09:00 +12°C° 0 mm 2 mps 762 mmHg 68%
    10:00 +13°C° 0 mm 2 mps 762 mmHg 63%
    11:00 +14°C° 0 mm 1 mps 763 mmHg 58%
    12:00 +15°C° 0 mm 1 mps 763 mmHg 54%
    13:00 +15°C° 0 mm 1 mps 762 mmHg 54%
    14:00 +15°C° 0 mm 1 mps 762 mmHg 54%
    15:00 +15°C° 0 mm 2 mps 762 mmHg 55%
    16:00 +15°C° 0 mm 2 mps 763 mmHg 60%
    17:00 +14°C° 0 mm 2 mps 763 mmHg 65%
    18:00 +13°C° 0 mm 2 mps 763 mmHg 70%
    19:00 +12°C° 0 mm 2 mps 764 mmHg 71%
    20:00 +12°C° 0 mm 2 mps 764 mmHg 72%
    21:00 +10°C° 0 mm 2 mps 764 mmHg 73%
    22:00 +10°C° 0 mm 2 mps 764 mmHg 73%
    23:00 +10°C° 0 mm 2 mps 765 mmHg 74%
    Show more